This is the latest recevied weather packets stored in our database for station/object AI5KP-13. If no packets are shown the sender has not sent any weather packets the latest 10 day(s).
| Time | Temp. | Humidity | Pressure | Rain* | Wind** | Luminosity | Snow |
|---|---|---|---|---|---|---|---|
| 1777830376 | 22.22° C | 48% | 1016.8 hPa | 0 mm | - | 740 W/m² | - |
| 1777830074 | 22.22° C | 51% | 1016.8 hPa | 0 mm | - | 740 W/m² | - |
| 1777829769 | 22.78° C | 50% | 1016.8 hPa | 0 mm | - | 739 W/m² | - |
| 1777829465 | 22.22° C | 47% | 1016.9 hPa | 0 mm | - | 737 W/m² | - |
| 1777829162 | 21.67° C | 47% | 1017.1 hPa | 0 mm | - | 735 W/m² | - |
| 1777828860 | 22.22° C | 49% | 1017.1 hPa | 0 mm | - | 732 W/m² | - |
| 1777828556 | 21.67° C | 52% | 1017.2 hPa | 0 mm | - | 730 W/m² | - |
| 1777828253 | 21.67° C | 51% | 1017.3 hPa | 0 mm | - | 727 W/m² | - |
| 1777827944 | 21.67° C | 46% | 1017.5 hPa | 0 mm | - | 722 W/m² | - |
| 1777827641 | 22.22° C | 45% | 1017.4 hPa | 0 mm | - | 717 W/m² | - |
| 1777827339 | 21.67° C | 44% | 1017.4 hPa | 0 mm | - | 712 W/m² | - |
| 1777827035 | 21.67° C | 46% | 1017.4 hPa | 0 mm | - | 707 W/m² | - |
| 1777826732 | 21.11° C | 46% | 1017.8 hPa | 0 mm | - | 704 W/m² | - |
| 1777826429 | 21.67° C | 45% | 1017.7 hPa | 0 mm | - | 696 W/m² | - |
| 1777826126 | 21.11° C | 47% | 1017.7 hPa | 0 mm | - | 691 W/m² | - |
| 1777825822 | 21.67° C | 45% | 1017.7 hPa | 0 mm | - | 683 W/m² | - |
| 1777825520 | 20.56° C | 45% | 1017.7 hPa | 0 mm | - | 676 W/m² | - |
| 1777825217 | 20.56° C | 47% | 1017.8 hPa | 0 mm | - | 668 W/m² | - |
| 1777824909 | 20.56° C | 45% | 1017.8 hPa | 0 mm | - | 659 W/m² | - |
| 1777824604 | 20.56° C | 45% | 1017.8 hPa | 0 mm | - | 652 W/m² | - |
| 1777824301 | 20° C | 45% | 1017.7 hPa | 0 mm | - | 642 W/m² | - |
| 1777823996 | 20° C | 46% | 1017.9 hPa | 0 mm | - | 633 W/m² | - |
| 1777823694 | 20° C | 46% | 1018 hPa | 0 mm | - | 622 W/m² | - |
| 1777823390 | 20° C | 46% | 1018.1 hPa | 0 mm | - | 611 W/m² | - |
| 1777823089 | 20.56° C | 46% | 1018.1 hPa | 0 mm | - | 600 W/m² | - |
* Rain latest hour (hover to see other rain measurements)
** Current wind speed in m/s (hover to see current wind gust speed)